Flag for France Weather past 2 weeks in Dijon, France

Now
66 °F

Clear.


Feels Like: 66 °F
Forecast: 56 / 81 °F
Wind: 5 mph from Northwest

Location: Dijon Airport

Current Time: Jul 31, 2014 at 11:39:29 PM

Latest Report: Jul 31, 2014 at 11:00 PM


Visibility: N/A

Pressure: 29.92 "Hg

Humidity: 73%

Dew point: 57 °F

Location of DijonLocation

Historic Weather in Dijon — Graph

°F

Dijon temperature yesterday

Maximum temperature yesterday: 75 °F (at 5:30 PM)
Minimum temperature yesterday: 61 °F (at 12:00 AM)
Average temperature yesterday: 67 °F

Past Weeks' High & Low Weather Summary

 TemperatureHumidityPressure
High93 °F (Jul 18, 3:00 PM)100% (Jul 21, 5:30 AM)30.15 "Hg (Jul 21, 5:30 AM)
Low55 °F (Jul 31, 6:00 AM)28% (Jul 18, 3:30 PM)29.83 "Hg (Jul 19, 5:00 PM)
Average70 °F73%29.95 "Hg
* Reported Jul 16 10:00 PM — Jul 31 10:30 PM, Dijon, Weather by CustomWeather, © 2014

Note: Actual official high and low records may vary slightly from our data, if they occured in-between our weather recording intervals... More about our weather records

Advertising

Dijon weather history for previous 24 hours

 ConditionsComfort  
Time TempWeatherWind HumidityBarometerVisibility
10:30 PM
Jul 31
68 °FClear.3 mph69%29.95 "HgN/A
10:00 PM68 °FClear.3 mph69%29.92 "HgN/A
9:30 PM72 °FClear.3 mph61%29.92 "HgN/A
9:00 PM73 °FClear.5 mph57%29.92 "HgN/A
8:30 PM75 °FClear.6 mph54%29.92 "HgN/A
8:00 PM77 °FClear.7 mph47%29.92 "HgN/A
7:30 PM77 °FClear.7 mph47%29.92 "HgN/A
7:00 PM79 °FClear.5 mph45%29.92 "HgN/A
6:30 PM79 °FClear.7 mph45%29.92 "HgN/A
6:00 PM79 °FClear.8 mph42%29.92 "HgN/A
5:30 PM79 °FClear.5 mph45%29.92 "HgN/A
5:00 PM79 °FClear.5 mph42%29.95 "HgN/A
4:30 PM79 °FClear.9 mph45%29.95 "HgN/A
4:00 PM77 °FClear.6 mph47%29.95 "HgN/A
3:30 PM79 °FClear.6 mph48%29.95 "HgN/A
3:00 PM77 °FClear.7 mph47%29.98 "HgN/A
2:30 PM77 °FPassing clouds.6 mph54%29.98 "HgN/A
2:00 PM75 °FPartly sunny.8 mph50%29.98 "HgN/A
1:30 PM77 °FPassing clouds.7 mph51%29.98 "HgN/A
1:00 PM75 °FPassing clouds.8 mph50%29.98 "HgN/A
12:30 PM75 °FScattered clouds.9 mph54%30.01 "HgN/A
12:00 PM75 °FPassing clouds.9 mph54%30.01 "HgN/A
11:30 AM73 °FClear.8 mph57%30.01 "HgN/A
11:00 AM72 °FClear.6 mph65%30.01 "HgN/A
10:30 AM70 °FClear.6 mph73%30.01 "HgN/A
10:00 AM70 °FClear.7 mph69%30.01 "HgN/A
9:30 AM68 °FClear.7 mph69%30.01 "HgN/A
9:00 AM66 °FClear.8 mph73%30.01 "HgN/A
8:30 AM64 °FClear.6 mph78%30.01 "HgN/A
8:00 AM61 °FClear.6 mph83%30.01 "HgN/A
7:30 AM59 °FClear.5 mph88%30.01 "HgN/A
7:00 AM57 °FClear.3 mph88%30.01 "HgN/A
6:30 AM55 °FClear.5 mph94%30.01 "HgN/A
6:00 AM55 °FClear.6 mph94%30.01 "HgN/A
5:30 AM57 °FClear.5 mph88%30.01 "HgN/A
4:30 AM57 °FClear.3 mph88%30.01 "HgN/A
4:00 AM57 °FClear.6 mph88%30.01 "HgN/A
3:30 AM59 °FClear.7 mph88%30.01 "HgN/A
3:00 AM59 °FClear.5 mph88%30.01 "HgN/A
2:30 AM61 °FClear.5 mph83%30.01 "HgN/A
2:00 AM61 °FClear.3 mph83%30.01 "HgN/A
1:30 AM61 °FClear.6 mph88%30.01 "HgN/A
1:00 AM61 °FClear.6 mph88%30.01 "HgN/A
12:30 AM63 °FClear.3 mph83%30.01 "HgN/A
12:00 AM64 °FClear.3 mph78%30.01 "HgN/A
11:30 PM
Jul 30
64 °FClear.5 mph78%30.01 "HgN/A
11:00 PM64 °FClear.5 mph78%30.01 "HgN/A
Weather by CustomWeather, © 2014

See weather overviewHow to use our weather pages